Regional Weather Roundup
Issued by NWS State College, PA

Home | Current Version | Previous Version | Text Only | Print | Product List | Glossary On
Versions: 1 2 3 4 5 6 7 8 9 10 11 12 13 14 15 16 17 18 19 20 21 22 23 24 25 26 27 28 29 30 31 32 33 34 35 36 37 38 39 40 41 42 43 44 45 46 47 48 49 50
000
ASUS41 KCTP 281510
RWRCTP

REGIONAL WEATHER ROUNDUP
NATIONAL WEATHER SERVICE STATE COLLEGE PA
1100 AM EDT SAT MAR 28 2015

Note: "fair" indicates few or no clouds below 12,000 feet with no
significant weather and/or obstructions to visibility.

* = STATION THAT DOES NOT REPORT PRECIPITATION /E.G. RAIN...SNOW...ETC/
    THUNDER OR FOG.

PAZ002>004-007>009-013>016-020>023-029>032-281600-
WESTERN PENNSYLVANIA

CITY           SKY/WX    TMP DP  RH WIND       PRES   REMARKS
ERIE           CLOUDY    18   6  59 N12       30.20R WCI   5
MEADVILLE      LGT SNOW  17  10  74 N7        30.12R WCI   8
FRANKLIN*      CLOUDY    16   9  73 N7        30.11R WCI   6
NEW CASTLE     PTSUNNY   18   9  68 NW9       30.17R WCI   7
BEAVER COUNTY  CLOUDY    19   7  58 NW7       30.14R WCI  10
BUTLER*        PTSUNNY   19   9  63 N7        30.14R WCI  10
PITTSBURGH INT PTSUNNY   20   7  57 NW10      30.13R WCI   9
PITTSBURGH     CLOUDY    19   4  51 NW9       30.11R WCI   8
INDIANA*       CLOUDY    19  10  68 NW9G17    30.10R HAZE    WCI   9
LATROBE        CLOUDY    19   9  63 NW9       30.13R WCI   9
WASHINGTON CO* CLOUDY    19   3  49 NW13G21   30.15R WCI   7
$$

PAZ004>006-010>012-017>019-024>028-033>037-041-042-045-046-049>053-281600-
CENTRAL PENNSYLVANIA

CITY           SKY/WX    TMP DP  RH WIND       PRES   REMARKS
BRADFORD       CLOUDY    17   6  62 NW13      29.98R WCI   4
DUBOIS         CLOUDY    19   8  62 N7        30.01R WCI  10
CLEARFIELD     FLURRIES  20   9  62 NW13      30.02R WCI   7
JOHNSTOWN      LGT SNOW  15   7  70 NW16      29.96R WCI  -1
ALTOONA        CLOUDY    21   8  57 NW16G24   30.00R WCI   7
STATE COLLEGE  FLURRIES  23  10  58 NW10      30.00R WCI  12
WILLIAMSPORT   CLOUDY    28   8  43 N12G21    30.00S
SELINSGROVE    MIX PCPN  28  16  60 NW16      30.01R
FT INDIANTOWN  CLOUDY    30  13  49 NW16G28   29.95S
CAPITAL CITY   LGT SNOW  28  20  71 N13       29.99S
HARRISBURG     FLURRIES  29  18  63 N15       29.98R
YORK           LGT SNOW  27  22  81 NW13      29.98R
$$

PAZ038>040-043-044-047-048-054-055-060>062-067>071-281600-
EASTERN PENNSYLVANIA

CITY           SKY/WX    TMP DP  RH WIND       PRES   REMARKS
SCRANTON       CLOUDY    27  11  51 N10       29.92R
MOUNT POCONO   PTSUNNY   24  12  60 N21G35    29.80R WCI   9
ALLENTOWN      MOSUNNY   34  17  50 NW16G24   29.90S
QUAKERTOWN*    CLOUDY    32  18  55 N12G20    29.89R
READING        PTSUNNY   31  14  49 N18       29.93R
LANCASTER      CLOUDY    30  18  60 N14G22    29.94R
COATESVILLE    MIX PCPN  30  25  80 NW18      29.90S
POTTSTOWN      CLOUDY    33  17  51 NW15G25   29.91R
BLUE BELL      MOSUNNY   36  21  55 N10G16    29.88R
DOYLESTOWN     CLOUDY    34  17  50 N15G22    29.86R
WILLOW GROVE   NOT AVBL
NORTH PHILA    CLOUDY    39  18  42 NW17      29.89R
PHILADELPHIA   PTSUNNY   38  18  44 NW15G24   29.90R
$$



USA.gov is the U.S. government's official web portal to all federal, state and local government web resources and services.